Regional Weather Roundup
Issued by NWS Cleveland, OH

Home | Current Version | Previous Version | Text Only | Print | Product List | Glossary Off
Versions: 1 2 3 4 5 6 7 8 9 10 11 12 13 14 15 16 17 18 19 20 21 22 23 24 25 26 27 28 29 30 31 32 33 34 35 36 37 38 39 40 41 42 43 44 45 46 47 48 49 50

000
ASUS41 KCLE 020810
RWRCLE
OHIO REGIONAL WEATHER ROUNDUP
NATIONAL WEATHER SERVICE CLEVELAND, OH
400 AM EDT THU OCT 02 2014

NOTE: "FAIR" INDICATES FEW OR NO CLOUDS BELOW 12,000 FEET WITH NO
SIGNIFICANT WEATHER AND/OR OBSTRUCTIONS TO VISIBILITY.

OHZ001>008-015>018-024>027-034-035-043-044-020900-
   NORTHWEST OHIO

CITY           SKY/WX    TMP DP  RH WIND       PRES   REMARKS
DEFIANCE       CLEAR     51  48  89 E3        30.01F FOG
FINDLAY        CLEAR     53  50  89 SE6       30.02S FOG
TOLEDO EXPRESS FOG       48  46  93 CALM      30.02F VSB 1/2
TOLEDO EXEC    FOG       49  48  97 CALM      30.04S VSB 1/2
LIMA           CLEAR     57  51  80 SE10      30.02S
$$

OHZ009>014-019>023-028>033-038-089-020900-
   NORTHEAST OHIO

CITY           SKY/WX    TMP DP  RH WIND       PRES   REMARKS
CLE-HOPKINS    PTCLDY    52  50  93 CALM      30.06F FOG
CLE-LAKEFRONT  CLEAR     57  54  89 SE6       30.03F
CUY CO. ARPT   NOT AVBL
LORAIN-ELYRIA  FOG       51  47  86 CALM      30.05S VSB 1/4
ASHTABULA      FOG       52  51  97 CALM      30.07F VSB 1/4
AKRON-CANTON   CLEAR     52  49  89 CALM      30.05F FOG
WOOSTER        FOG       45  43  93 CALM      30.06S VSB 1/4
MANSFIELD      CLEAR     45  45 100 S5        30.05R FOG
YOUNGSTOWN     MOCLDY    46  46 100 E3        30.06S FOG
$$

OHZ042-051>053-060>062-070>072-077>081-020900-
  SOUTHWEST OHIO

CITY           SKY/WX    TMP DP  RH WIND       PRES   REMARKS
CINC-COVINGTON CLEAR     61  53  75 E5        30.00F
CINC-LUNKEN    CLEAR     52  51  97 CALM      30.02S
HAMILTON       CLOUDY    52  51  97 CALM      30.02S
DAYTON         MOCLDY    57  50  77 SE5       30.03S
WRIGHT-PAT AFB MOCLDY    53  50  90 N2        30.03S
DAYTON GENERAL MOCLDY    58  48  69 E3        30.01S
WILMINGTON     PTCLDY    53  45  74 E6        30.03S
$$

OHZ036-037-039>041-045>050-054>059-063>069-073>076-082>088-020900-
  CENTRAL AND SOUTHEAST OHIO

CITY           SKY/WX    TMP DP  RH WIND       PRES   REMARKS
COLUMBUS       CLEAR     50  48  93 CALM      30.03F FOG
OSU AIRPORT    CLEAR     49  48  97 CALM      30.04S FOG
BOLTON FIELD   FOG       47  47 100 CALM      30.04S VSB 1/4
RICKENBACK AFB CLEAR     49  48  96 CALM      30.03S FOG
NEWARK         FOG       44  42  93 CALM      30.04F VSB 1/4
MARION         CLEAR     48  46  93 SE3       30.04S FOG
LANCASTER      PTCLDY    45  43  93 CALM      30.05S FOG
ZANESVILLE     FOG       46  44  93 CALM      30.05S VSB 1/2
NEW PHILLY     FOG       50  50 100 CALM      30.06S VSB 1/4
$$


USA.gov is the U.S. government's official web portal to all federal, state and local government web resources and services.